Year,Month,Day,Hour,Minute,Value (Times are PST for temperature in C)
2011,04,22,00,00,6.90
2011,04,22,00,01,6.90
2011,04,22,00,02,6.90
2011,04,22,00,03,6.90
2011,04,22,00,04,6.90
2011,04,22,00,05,6.90
2011,04,22,00,06,6.90
2011,04,22,00,07,6.90
2011,04,22,00,08,6.90
2011,04,22,00,09,6.90
2011,04,22,00,10,6.90
2011,04,22,00,11,6.90
2011,04,22,00,12,6.90
2011,04,22,00,13,6.90
2011,04,22,00,14,6.90
2011,04,22,00,15,6.90
2011,04,22,00,16,6.90
2011,04,22,00,17,7.00
2011,04,22,00,18,7.00
2011,04,22,00,19,7.00
2011,04,22,00,20,7.00
2011,04,22,00,21,7.00
2011,04,22,00,22,6.90
2011,04,22,00,23,6.90
2011,04,22,00,24,6.90
2011,04,22,00,25,6.90
2011,04,22,00,26,6.90
2011,04,22,00,27,6.90
2011,04,22,00,28,6.90
2011,04,22,00,29,6.90
2011,04,22,00,30,6.90
2011,04,22,00,31,6.90
2011,04,22,00,32,6.90
2011,04,22,00,33,6.90
2011,04,22,00,34,6.90
2011,04,22,00,35,6.90
2011,04,22,00,36,6.90
2011,04,22,00,37,6.90
2011,04,22,00,38,6.90
2011,04,22,00,39,6.90
2011,04,22,00,40,6.90
2011,04,22,00,41,6.90
2011,04,22,00,42,6.90
2011,04,22,00,43,6.90
2011,04,22,00,44,6.90
2011,04,22,00,45,6.90
2011,04,22,00,46,6.90
2011,04,22,00,47,6.90
2011,04,22,00,48,6.90
2011,04,22,00,49,6.90
2011,04,22,00,50,6.90
2011,04,22,00,51,6.90
2011,04,22,00,52,6.90
2011,04,22,00,53,6.90
2011,04,22,00,54,6.90
2011,04,22,00,55,6.90
2011,04,22,00,56,6.80
2011,04,22,00,57,6.80
2011,04,22,00,58,6.80
2011,04,22,00,59,6.80
2011,04,22,01,00,6.80
2011,04,22,01,01,6.80
2011,04,22,01,02,6.80
2011,04,22,01,03,6.80
2011,04,22,01,04,6.80
2011,04,22,01,05,6.70
2011,04,22,01,06,6.70
2011,04,22,01,07,6.70
2011,04,22,01,08,6.70
2011,04,22,01,09,6.70
2011,04,22,01,10,6.70
2011,04,22,01,11,6.70
2011,04,22,01,12,6.70
2011,04,22,01,13,6.70
2011,04,22,01,14,6.70
2011,04,22,01,15,6.60
2011,04,22,01,16,6.60
2011,04,22,01,17,6.60
2011,04,22,01,18,6.60
2011,04,22,01,19,6.50
2011,04,22,01,20,6.50
2011,04,22,01,21,6.50
2011,04,22,01,22,6.50
2011,04,22,01,23,6.50
2011,04,22,01,24,6.50
2011,04,22,01,25,6.50
2011,04,22,01,26,6.40
2011,04,22,01,27,6.40
2011,04,22,01,28,6.40
2011,04,22,01,29,6.40
2011,04,22,01,30,6.40
2011,04,22,01,31,6.40
2011,04,22,01,32,6.40
2011,04,22,01,33,6.40
2011,04,22,01,34,6.30
2011,04,22,01,35,6.30
2011,04,22,01,36,6.30
2011,04,22,01,37,6.30
2011,04,22,01,38,6.30
2011,04,22,01,39,6.30
2011,04,22,01,40,6.30
2011,04,22,01,41,6.30
2011,04,22,01,42,6.20
2011,04,22,01,43,6.20
2011,04,22,01,44,6.20
2011,04,22,01,45,6.20
2011,04,22,01,46,6.20
2011,04,22,01,47,6.20
2011,04,22,01,48,6.20
2011,04,22,01,49,6.20
2011,04,22,01,50,6.20
2011,04,22,01,51,6.10
2011,04,22,01,52,6.10
2011,04,22,01,53,6.10
2011,04,22,01,54,6.10
2011,04,22,01,55,6.10
2011,04,22,01,56,6.10
2011,04,22,01,57,6.10
2011,04,22,01,58,6.10
2011,04,22,01,59,6.10
2011,04,22,02,00,6.10
2011,04,22,02,01,6.10
2011,04,22,02,02,6.00
2011,04,22,02,03,6.00
2011,04,22,02,04,6.00
2011,04,22,02,05,6.00
2011,04,22,02,06,5.90
2011,04,22,02,07,5.90
2011,04,22,02,08,5.90
2011,04,22,02,09,5.90
2011,04,22,02,10,5.80
2011,04,22,02,11,5.80
2011,04,22,02,12,5.80
2011,04,22,02,13,5.80
2011,04,22,02,14,5.80
2011,04,22,02,15,5.80
2011,04,22,02,16,5.80
2011,04,22,02,17,5.80
2011,04,22,02,18,5.80
2011,04,22,02,19,5.80
2011,04,22,02,20,5.80
2011,04,22,02,21,5.80
2011,04,22,02,22,5.80
2011,04,22,02,23,5.70
2011,04,22,02,24,5.70
2011,04,22,02,25,5.70
2011,04,22,02,26,5.70
2011,04,22,02,27,5.70
2011,04,22,02,28,5.70
2011,04,22,02,29,5.70
2011,04,22,02,30,5.70
2011,04,22,02,31,5.70
2011,04,22,02,32,5.60
2011,04,22,02,33,5.60
2011,04,22,02,34,5.60
2011,04,22,02,35,5.60
2011,04,22,02,36,5.60
2011,04,22,02,37,5.60
2011,04,22,02,38,5.60
2011,04,22,02,39,5.60
2011,04,22,02,40,5.60
2011,04,22,02,41,5.50
2011,04,22,02,42,5.50
2011,04,22,02,43,5.50
2011,04,22,02,44,5.40
2011,04,22,02,45,5.40
2011,04,22,02,46,5.40
2011,04,22,02,47,5.40
2011,04,22,02,48,5.40
2011,04,22,02,49,5.30
2011,04,22,02,50,5.30
2011,04,22,02,51,5.30
2011,04,22,02,52,5.20
2011,04,22,02,53,5.20
2011,04,22,02,54,5.10
2011,04,22,02,55,5.10
2011,04,22,02,56,5.00
2011,04,22,02,57,5.00
2011,04,22,02,58,4.90
2011,04,22,02,59,4.90
2011,04,22,03,00,4.80
2011,04,22,03,01,4.70
2011,04,22,03,02,4.70
2011,04,22,03,03,4.70
2011,04,22,03,04,4.60
2011,04,22,03,05,4.60
2011,04,22,03,06,4.50
2011,04,22,03,07,4.50
2011,04,22,03,08,4.40
2011,04,22,03,09,4.40
2011,04,22,03,10,4.30
2011,04,22,03,11,4.30
2011,04,22,03,12,4.20
2011,04,22,03,13,4.20
2011,04,22,03,14,4.20
2011,04,22,03,15,4.10
2011,04,22,03,16,4.00
2011,04,22,03,17,4.00
2011,04,22,03,18,3.90
2011,04,22,03,19,3.90
2011,04,22,03,20,3.80
2011,04,22,03,21,3.80
2011,04,22,03,22,3.70
2011,04,22,03,23,3.70
2011,04,22,03,24,3.70
2011,04,22,03,25,3.60
2011,04,22,03,26,3.60
2011,04,22,03,27,3.50
2011,04,22,03,28,3.50
2011,04,22,03,29,3.40
2011,04,22,03,30,3.40
2011,04,22,03,31,3.40
2011,04,22,03,32,3.30
2011,04,22,03,33,3.30
2011,04,22,03,34,3.30
2011,04,22,03,35,3.30
2011,04,22,03,36,3.20
2011,04,22,03,37,3.20
2011,04,22,03,38,3.20
2011,04,22,03,39,3.20
2011,04,22,03,40,3.20
2011,04,22,03,41,3.10
2011,04,22,03,42,3.10
2011,04,22,03,43,3.10
2011,04,22,03,44,3.10
2011,04,22,03,45,3.10
2011,04,22,03,46,3.00
2011,04,22,03,47,3.00
2011,04,22,03,48,3.00
2011,04,22,03,49,2.90
2011,04,22,03,50,2.90
2011,04,22,03,51,2.90
2011,04,22,03,52,2.90
2011,04,22,03,53,2.80
2011,04,22,03,54,2.80
2011,04,22,03,55,2.80
2011,04,22,03,56,2.80
2011,04,22,03,57,2.80
2011,04,22,03,58,2.80
2011,04,22,03,59,2.80
2011,04,22,04,00,2.70
2011,04,22,04,01,2.70
2011,04,22,04,02,2.70
2011,04,22,04,03,2.70
2011,04,22,04,04,2.70
2011,04,22,04,05,2.60
2011,04,22,04,06,2.60
2011,04,22,04,07,2.60
2011,04,22,04,08,2.60
2011,04,22,04,09,2.50
2011,04,22,04,10,2.50
2011,04,22,04,11,2.50
2011,04,22,04,12,2.40
2011,04,22,04,13,2.40
2011,04,22,04,14,2.40
2011,04,22,04,15,2.40
2011,04,22,04,16,2.40
2011,04,22,04,17,2.30
2011,04,22,04,18,2.30
2011,04,22,04,19,2.30
2011,04,22,04,20,2.30
2011,04,22,04,21,2.30
2011,04,22,04,22,2.20
2011,04,22,04,23,2.20
2011,04,22,04,24,2.20
2011,04,22,04,25,2.20
2011,04,22,04,26,2.20
2011,04,22,04,27,2.10
2011,04,22,04,28,2.10
2011,04,22,04,29,2.10
2011,04,22,04,30,2.10
2011,04,22,04,31,2.00
2011,04,22,04,32,2.00
2011,04,22,04,33,2.00
2011,04,22,04,34,2.00
2011,04,22,04,35,2.00
2011,04,22,04,36,2.00
2011,04,22,04,37,2.00
2011,04,22,04,38,2.00
2011,04,22,04,39,2.10
2011,04,22,04,40,2.10
2011,04,22,04,41,2.10
2011,04,22,04,42,2.10
2011,04,22,04,43,2.20
2011,04,22,04,44,2.20
2011,04,22,04,45,2.20
2011,04,22,04,46,2.20
2011,04,22,04,47,2.20
2011,04,22,04,48,2.20
2011,04,22,04,49,2.20
2011,04,22,04,50,2.20
2011,04,22,04,51,2.20
2011,04,22,04,52,2.20
2011,04,22,04,53,2.20
2011,04,22,04,54,2.20
2011,04,22,04,55,2.20
2011,04,22,04,56,2.20
2011,04,22,04,57,2.20
2011,04,22,04,58,2.20
2011,04,22,04,59,2.20
2011,04,22,05,00,2.20
2011,04,22,05,01,2.20
2011,04,22,05,02,2.20
2011,04,22,05,03,2.20
2011,04,22,05,04,2.20
2011,04,22,05,05,2.20
2011,04,22,05,06,2.20
2011,04,22,05,07,2.20
2011,04,22,05,08,2.20
2011,04,22,05,09,2.20
2011,04,22,05,10,2.30
2011,04,22,05,11,2.30
2011,04,22,05,12,2.30
2011,04,22,05,13,2.30
2011,04,22,05,14,2.30
2011,04,22,05,15,2.30
2011,04,22,05,16,2.30
2011,04,22,05,17,2.30
2011,04,22,05,18,2.30
2011,04,22,05,19,2.30
2011,04,22,05,20,2.30
2011,04,22,05,21,2.30
2011,04,22,05,22,2.30
2011,04,22,05,23,2.30
2011,04,22,05,24,2.30
2011,04,22,05,25,2.30
2011,04,22,05,26,2.30
2011,04,22,05,27,2.30
2011,04,22,05,28,2.30
2011,04,22,05,29,2.30
2011,04,22,05,30,2.30
2011,04,22,05,31,2.30
2011,04,22,05,32,2.30
2011,04,22,05,33,2.30
2011,04,22,05,34,2.30
2011,04,22,05,35,2.30
2011,04,22,05,36,2.30
2011,04,22,05,37,2.30
2011,04,22,05,38,2.30
2011,04,22,05,39,2.30
2011,04,22,05,40,2.30
2011,04,22,05,41,2.30
2011,04,22,05,42,2.30
2011,04,22,05,43,2.30
2011,04,22,05,44,2.30
2011,04,22,05,45,2.40
2011,04,22,05,46,2.40
2011,04,22,05,47,2.40
2011,04,22,05,48,2.40
2011,04,22,05,49,2.40
2011,04,22,05,50,2.40
2011,04,22,05,51,2.40
2011,04,22,05,52,2.40
2011,04,22,05,53,2.40
2011,04,22,05,54,2.40
2011,04,22,05,55,2.40
2011,04,22,05,56,2.40
2011,04,22,05,57,2.40
2011,04,22,05,58,2.50
2011,04,22,05,59,2.50
2011,04,22,06,00,2.50
2011,04,22,06,01,2.50
2011,04,22,06,02,2.50
2011,04,22,06,03,2.50
2011,04,22,06,04,2.50
2011,04,22,06,05,2.50
2011,04,22,06,06,2.50
2011,04,22,06,07,2.50
2011,04,22,06,08,2.50
2011,04,22,06,09,2.50
2011,04,22,06,10,2.60
2011,04,22,06,11,2.60
2011,04,22,06,12,2.60
2011,04,22,06,13,2.60
2011,04,22,06,14,2.60
2011,04,22,06,15,2.60
2011,04,22,06,16,2.60
2011,04,22,06,17,2.60
2011,04,22,06,18,2.60
2011,04,22,06,19,2.60
2011,04,22,06,20,2.60
2011,04,22,06,21,2.60
2011,04,22,06,22,2.60
2011,04,22,06,23,2.60
2011,04,22,06,24,2.50
2011,04,22,06,25,2.50
2011,04,22,06,26,2.50
2011,04,22,06,27,2.50
2011,04,22,06,28,2.50
2011,04,22,06,29,2.50
2011,04,22,06,30,2.50
2011,04,22,06,31,2.50
2011,04,22,06,32,2.50
2011,04,22,06,33,2.50
2011,04,22,06,34,2.50
2011,04,22,06,35,2.50
2011,04,22,06,36,2.50
2011,04,22,06,37,2.50
2011,04,22,06,38,2.50
2011,04,22,06,39,2.50
2011,04,22,06,40,2.50
2011,04,22,06,41,2.60
2011,04,22,06,42,2.60
2011,04,22,06,43,2.60
2011,04,22,06,44,2.60
2011,04,22,06,45,2.60
2011,04,22,06,46,2.60
2011,04,22,06,47,2.60
2011,04,22,06,48,2.60
2011,04,22,06,49,2.70
2011,04,22,06,50,2.70
2011,04,22,06,51,2.70
2011,04,22,06,52,2.70
2011,04,22,06,53,2.70
2011,04,22,06,54,2.70
2011,04,22,06,55,2.70
2011,04,22,06,56,2.70
2011,04,22,06,57,2.70
2011,04,22,06,58,2.70
2011,04,22,06,59,2.80
2011,04,22,07,00,2.80
2011,04,22,07,01,2.80
2011,04,22,07,02,2.80
2011,04,22,07,03,2.80
2011,04,22,07,04,2.80
2011,04,22,07,05,2.80
2011,04,22,07,06,2.80
2011,04,22,07,07,2.90
2011,04,22,07,08,2.90
2011,04,22,07,09,2.90
2011,04,22,07,10,2.90
2011,04,22,07,11,2.90
2011,04,22,07,12,3.00
2011,04,22,07,13,3.00
2011,04,22,07,14,3.00
2011,04,22,07,15,3.00
2011,04,22,07,16,3.10
2011,04,22,07,17,3.10
2011,04,22,07,18,3.10
2011,04,22,07,19,3.10
2011,04,22,07,20,3.10
2011,04,22,07,21,3.10
2011,04,22,07,22,3.20
2011,04,22,07,23,3.20
2011,04,22,07,24,3.20
2011,04,22,07,25,3.20
2011,04,22,07,26,3.20
2011,04,22,07,27,3.20
2011,04,22,07,28,3.30
2011,04,22,07,29,3.30
2011,04,22,07,30,3.30
2011,04,22,07,31,3.30
2011,04,22,07,32,3.30
2011,04,22,07,33,3.40
2011,04,22,07,34,3.40
2011,04,22,07,35,3.40
2011,04,22,07,36,3.40
2011,04,22,07,37,3.40
2011,04,22,07,38,3.50
2011,04,22,07,39,3.50
2011,04,22,07,40,3.50
2011,04,22,07,41,3.60
2011,04,22,07,42,3.60
2011,04,22,07,43,3.60
2011,04,22,07,44,3.70
2011,04,22,07,45,3.70
2011,04,22,07,46,3.70
2011,04,22,07,47,3.70
2011,04,22,07,48,3.80
2011,04,22,07,49,3.80
2011,04,22,07,50,3.80
2011,04,22,07,51,3.80
2011,04,22,07,52,3.80
2011,04,22,07,53,3.90
2011,04,22,07,54,3.90
2011,04,22,07,55,4.00
2011,04,22,07,56,4.00
2011,04,22,07,57,4.00
2011,04,22,07,58,4.10
2011,04,22,07,59,4.10
2011,04,22,08,00,4.10
2011,04,22,08,01,4.20
2011,04,22,08,02,4.20
2011,04,22,08,03,4.30
2011,04,22,08,04,4.30
2011,04,22,08,05,4.30
2011,04,22,08,06,4.30
2011,04,22,08,07,4.40
2011,04,22,08,08,4.40
2011,04,22,08,09,4.50
2011,04,22,08,10,4.50
2011,04,22,08,11,4.60
2011,04,22,08,12,4.60
2011,04,22,08,13,4.70
2011,04,22,08,14,4.70
2011,04,22,08,15,4.80
2011,04,22,08,16,4.80
2011,04,22,08,17,4.90
2011,04,22,08,18,4.90
2011,04,22,08,19,5.00
2011,04,22,08,20,5.00
2011,04,22,08,21,5.10
2011,04,22,08,22,5.10
2011,04,22,08,23,5.20
2011,04,22,08,24,5.20
2011,04,22,08,25,5.30
2011,04,22,08,26,5.30
2011,04,22,08,27,5.40
2011,04,22,08,28,5.40
2011,04,22,08,29,5.40
2011,04,22,08,30,5.50
2011,04,22,08,31,5.50
2011,04,22,08,32,5.60
2011,04,22,08,33,5.60
2011,04,22,08,34,5.70
2011,04,22,08,35,5.70
2011,04,22,08,36,5.80
2011,04,22,08,37,5.80
2011,04,22,08,38,5.90
2011,04,22,08,39,6.00
2011,04,22,08,40,6.00
2011,04,22,08,41,6.10
2011,04,22,08,42,6.20
2011,04,22,08,43,6.20
2011,04,22,08,44,6.30
2011,04,22,08,45,6.30
2011,04,22,08,46,6.30
2011,04,22,08,47,6.30
2011,04,22,08,48,6.40
2011,04,22,08,49,6.40
2011,04,22,08,50,6.40
2011,04,22,08,51,6.50
2011,04,22,08,52,6.60
2011,04,22,08,53,6.70
2011,04,22,08,54,6.70
2011,04,22,08,55,6.80
2011,04,22,08,56,6.80
2011,04,22,08,57,6.90
2011,04,22,08,58,6.90
2011,04,22,08,59,6.90
2011,04,22,09,00,7.00
2011,04,22,09,01,7.00
2011,04,22,09,02,7.10
2011,04,22,09,03,7.10
2011,04,22,09,04,7.10
2011,04,22,09,05,7.20
2011,04,22,09,06,7.20
2011,04,22,09,07,7.20
2011,04,22,09,08,7.30
2011,04,22,09,09,7.30
2011,04,22,09,10,7.20
2011,04,22,09,11,7.30
2011,04,22,09,12,7.30
2011,04,22,09,13,7.20
2011,04,22,09,14,7.20
2011,04,22,09,15,7.20
2011,04,22,09,16,7.20
2011,04,22,09,17,7.20
2011,04,22,09,18,7.10
2011,04,22,09,19,7.10
2011,04,22,09,20,7.20
2011,04,22,09,21,7.20
2011,04,22,09,22,7.20
2011,04,22,09,23,7.20
2011,04,22,09,24,7.20
2011,04,22,09,25,7.20
2011,04,22,09,26,7.20
2011,04,22,09,27,7.20
2011,04,22,09,28,7.20
2011,04,22,09,29,7.20
2011,04,22,09,30,7.30
2011,04,22,09,31,7.30
2011,04,22,09,32,7.30
2011,04,22,09,33,7.30
2011,04,22,09,34,7.30
2011,04,22,09,35,7.40
2011,04,22,09,36,7.40
2011,04,22,09,37,7.40
2011,04,22,09,38,7.40
2011,04,22,09,39,7.40
2011,04,22,09,40,7.40
2011,04,22,09,41,7.40
2011,04,22,09,42,7.40
2011,04,22,09,43,7.30
2011,04,22,09,44,7.30
2011,04,22,09,45,7.30
2011,04,22,09,46,7.30
2011,04,22,09,47,7.40
2011,04,22,09,48,7.40
2011,04,22,09,49,7.50
2011,04,22,09,50,7.50
2011,04,22,09,51,7.50
2011,04,22,09,52,7.50
2011,04,22,09,53,7.50
2011,04,22,09,54,7.50
2011,04,22,09,55,7.50
2011,04,22,09,56,7.50
2011,04,22,09,57,7.50
2011,04,22,09,58,7.50
2011,04,22,09,59,7.50
2011,04,22,10,00,7.50
2011,04,22,10,01,7.50
2011,04,22,10,02,7.50
2011,04,22,10,03,7.50
2011,04,22,10,04,7.60
2011,04,22,10,05,7.60
2011,04,22,10,06,7.60
2011,04,22,10,07,7.60
2011,04,22,10,08,7.60
2011,04,22,10,09,7.60
2011,04,22,10,10,7.60
2011,04,22,10,11,7.60
2011,04,22,10,12,7.60
2011,04,22,10,13,7.70
2011,04,22,10,14,7.70
2011,04,22,10,15,7.70
2011,04,22,10,16,7.70
2011,04,22,10,17,7.70
2011,04,22,10,18,7.80
2011,04,22,10,19,7.80
2011,04,22,10,20,7.80
2011,04,22,10,21,7.80
2011,04,22,10,22,7.80
2011,04,22,10,23,7.80
2011,04,22,10,24,7.80
2011,04,22,10,25,7.80
2011,04,22,10,26,7.80
2011,04,22,10,27,7.80
2011,04,22,10,28,7.80
2011,04,22,10,29,7.70
2011,04,22,10,30,7.70
2011,04,22,10,31,7.70
2011,04,22,10,32,7.70
2011,04,22,10,33,7.70
2011,04,22,10,34,7.70
2011,04,22,10,35,7.80
2011,04,22,10,36,7.80
2011,04,22,10,37,7.90
2011,04,22,10,38,7.90
2011,04,22,10,39,8.00
2011,04,22,10,40,8.00
2011,04,22,10,41,7.90
2011,04,22,10,42,7.90
2011,04,22,10,43,7.90
2011,04,22,10,44,7.90
2011,04,22,10,45,7.90
2011,04,22,10,46,7.90
2011,04,22,10,47,7.90
2011,04,22,10,48,7.90
2011,04,22,10,49,7.90
2011,04,22,10,50,8.00
2011,04,22,10,51,8.00
2011,04,22,10,52,8.00
2011,04,22,10,53,8.00
2011,04,22,10,54,8.00
2011,04,22,10,55,8.00
2011,04,22,10,56,8.00
2011,04,22,10,57,8.10
2011,04,22,10,58,8.10
2011,04,22,10,59,8.10
2011,04,22,11,00,8.10
2011,04,22,11,01,8.10
2011,04,22,11,02,8.10
2011,04,22,11,03,8.10
2011,04,22,11,04,8.10
2011,04,22,11,05,8.10
2011,04,22,11,06,8.10
2011,04,22,11,07,8.00
2011,04,22,11,08,8.00
2011,04,22,11,09,7.90
2011,04,22,11,10,7.90
2011,04,22,11,11,7.90
2011,04,22,11,12,7.90
2011,04,22,11,13,7.90
2011,04,22,11,14,7.90
2011,04,22,11,15,7.90
2011,04,22,11,16,7.90
2011,04,22,11,17,7.90
2011,04,22,11,18,7.90
2011,04,22,11,19,8.00
2011,04,22,11,20,8.00
2011,04,22,11,21,8.10
2011,04,22,11,22,8.20
2011,04,22,11,23,8.30
2011,04,22,11,24,8.30
2011,04,22,11,25,8.40
2011,04,22,11,26,8.50
2011,04,22,11,27,8.60
2011,04,22,11,28,8.60
2011,04,22,11,29,8.70
2011,04,22,11,30,8.70
2011,04,22,11,31,8.80
2011,04,22,11,32,8.80
2011,04,22,11,33,8.80
2011,04,22,11,34,8.80
2011,04,22,11,35,8.80
2011,04,22,11,36,8.80
2011,04,22,11,37,8.70
2011,04,22,11,38,8.70
2011,04,22,11,39,8.70
2011,04,22,11,40,8.70
2011,04,22,11,41,8.70
2011,04,22,11,42,8.70
2011,04,22,11,43,8.70
2011,04,22,11,44,8.70
2011,04,22,11,45,8.70
2011,04,22,11,46,8.80
2011,04,22,11,47,8.80
2011,04,22,11,48,8.70
2011,04,22,11,49,8.70
2011,04,22,11,50,8.70
2011,04,22,11,51,8.70
2011,04,22,11,52,8.80
2011,04,22,11,53,8.80
2011,04,22,11,54,8.80
2011,04,22,11,55,8.80
2011,04,22,11,56,8.80
2011,04,22,11,57,8.80
2011,04,22,11,58,8.80
2011,04,22,11,59,8.90
2011,04,22,12,00,8.90
2011,04,22,12,01,9.00
2011,04,22,12,02,9.10
2011,04,22,12,03,9.10
2011,04,22,12,04,9.20
2011,04,22,12,05,9.20
2011,04,22,12,06,9.30
2011,04,22,12,07,9.30
2011,04,22,12,08,9.40
2011,04,22,12,09,9.40
2011,04,22,12,10,9.40
2011,04,22,12,11,9.50
2011,04,22,12,12,9.50
2011,04,22,12,13,9.50
2011,04,22,12,14,9.50
2011,04,22,12,15,9.40
2011,04,22,12,16,9.40
2011,04,22,12,17,9.40
2011,04,22,12,18,9.40
2011,04,22,12,19,9.40
2011,04,22,12,20,9.30
2011,04,22,12,21,9.30
2011,04,22,12,22,9.30
2011,04,22,12,23,9.20
2011,04,22,12,24,9.20
2011,04,22,12,25,9.20
2011,04,22,12,26,9.20
2011,04,22,12,27,9.30
2011,04,22,12,28,9.30
2011,04,22,12,29,9.30
2011,04,22,12,30,9.30
2011,04,22,12,31,9.40
2011,04,22,12,32,9.40
2011,04,22,12,33,9.40
2011,04,22,12,34,9.40
2011,04,22,12,35,9.40
2011,04,22,12,36,9.40
2011,04,22,12,37,9.40
2011,04,22,12,38,9.50
2011,04,22,12,39,9.60
2011,04,22,12,40,9.70
2011,04,22,12,41,9.70
2011,04,22,12,42,9.80
2011,04,22,12,43,9.80
2011,04,22,12,44,9.80
2011,04,22,12,45,9.90
2011,04,22,12,46,10.00
2011,04,22,12,47,10.00
2011,04,22,12,48,10.10
2011,04,22,12,49,10.00
2011,04,22,12,50,10.00
2011,04,22,12,51,10.00
2011,04,22,12,52,10.00
2011,04,22,12,53,10.10
2011,04,22,12,54,10.10
2011,04,22,12,55,10.10
2011,04,22,12,56,10.10
2011,04,22,12,57,10.00
2011,04,22,12,58,9.90
2011,04,22,12,59,9.80
2011,04,22,13,00,9.70
2011,04,22,13,01,9.70
2011,04,22,13,02,9.80
2011,04,22,13,03,9.80
2011,04,22,13,04,9.80
2011,04,22,13,05,9.90
2011,04,22,13,06,9.90
2011,04,22,13,07,9.90
2011,04,22,13,08,10.00
2011,04,22,13,09,10.00
2011,04,22,13,10,10.10
2011,04,22,13,11,10.20
2011,04,22,13,12,10.20
2011,04,22,13,13,10.30
2011,04,22,13,14,10.30
2011,04,22,13,15,10.30
2011,04,22,13,16,10.30
2011,04,22,13,17,10.30
2011,04,22,13,18,10.40
2011,04,22,13,19,10.40
2011,04,22,13,20,10.40
2011,04,22,13,21,10.30
2011,04,22,13,22,10.30
2011,04,22,13,23,10.30
2011,04,22,13,24,10.30
2011,04,22,13,25,10.30
2011,04,22,13,26,10.30
2011,04,22,13,27,10.30
2011,04,22,13,28,10.30
2011,04,22,13,29,10.30
2011,04,22,13,30,10.30
2011,04,22,13,31,10.30
2011,04,22,13,32,10.30
2011,04,22,13,33,10.30
2011,04,22,13,34,10.30
2011,04,22,13,35,10.30
2011,04,22,13,36,10.30
2011,04,22,13,37,10.30
2011,04,22,13,38,10.40
2011,04,22,13,39,10.30
2011,04,22,13,40,10.30
2011,04,22,13,41,10.30
2011,04,22,13,42,10.30
2011,04,22,13,43,10.30
2011,04,22,13,44,10.30
2011,04,22,13,45,10.30
2011,04,22,13,46,10.30
2011,04,22,13,47,10.30
2011,04,22,13,48,10.30
2011,04,22,13,49,10.40
2011,04,22,13,50,10.40
2011,04,22,13,51,10.50
2011,04,22,13,52,10.60
2011,04,22,13,53,10.60
2011,04,22,13,54,10.60
2011,04,22,13,55,10.60
2011,04,22,13,56,10.60
2011,04,22,13,57,10.60
2011,04,22,13,58,10.70
2011,04,22,13,59,10.70
2011,04,22,14,00,10.70
2011,04,22,14,01,10.80
2011,04,22,14,02,10.80
2011,04,22,14,03,10.80
2011,04,22,14,04,10.70
2011,04,22,14,05,10.70
2011,04,22,14,06,10.70
2011,04,22,14,07,10.80
2011,04,22,14,08,10.80
2011,04,22,14,09,10.80
2011,04,22,14,10,10.80
2011,04,22,14,11,10.90
2011,04,22,14,12,10.90
2011,04,22,14,13,10.90
2011,04,22,14,14,10.90
2011,04,22,14,15,10.90
2011,04,22,14,16,11.00
2011,04,22,14,17,11.00
2011,04,22,14,18,11.00
2011,04,22,14,19,10.90
2011,04,22,14,20,10.90
2011,04,22,14,21,10.90
2011,04,22,14,22,10.90
2011,04,22,14,23,11.00
2011,04,22,14,24,11.00
2011,04,22,14,25,11.10
2011,04,22,14,26,11.10
2011,04,22,14,27,11.10
2011,04,22,14,28,11.10
2011,04,22,14,29,11.10
2011,04,22,14,30,11.10
2011,04,22,14,31,11.10
2011,04,22,14,32,11.10
2011,04,22,14,33,11.00
2011,04,22,14,34,11.10
2011,04,22,14,35,11.10
2011,04,22,14,36,11.20
2011,04,22,14,37,11.20
2011,04,22,14,38,11.20
2011,04,22,14,39,11.20
2011,04,22,14,40,11.20
2011,04,22,14,41,11.10
2011,04,22,14,42,11.10
2011,04,22,14,43,11.10
2011,04,22,14,44,11.10
2011,04,22,14,45,11.20
2011,04,22,14,46,11.20
2011,04,22,14,47,11.30
2011,04,22,14,48,11.30
2011,04,22,14,49,11.40
2011,04,22,14,50,11.40
2011,04,22,14,51,11.40
2011,04,22,14,52,11.30
2011,04,22,14,53,11.30
2011,04,22,14,54,11.30
2011,04,22,14,55,11.30
2011,04,22,14,56,11.20
2011,04,22,14,57,11.20
2011,04,22,14,58,11.20
2011,04,22,14,59,11.30
2011,04,22,15,00,11.20
2011,04,22,15,01,11.20
2011,04,22,15,02,11.30
2011,04,22,15,03,11.30
2011,04,22,15,04,11.40
2011,04,22,15,05,11.30
2011,04,22,15,06,11.30
2011,04,22,15,07,11.30
2011,04,22,15,08,11.20
2011,04,22,15,09,11.20
2011,04,22,15,10,11.30
2011,04,22,15,11,11.30
2011,04,22,15,12,11.30
2011,04,22,15,13,11.30
2011,04,22,15,14,11.30
2011,04,22,15,15,11.30
2011,04,22,15,16,11.30
2011,04,22,15,17,11.30
2011,04,22,15,18,11.30
2011,04,22,15,19,11.30
2011,04,22,15,20,11.30
2011,04,22,15,21,11.30
2011,04,22,15,22,11.30
2011,04,22,15,23,11.20
2011,04,22,15,24,11.20
2011,04,22,15,25,11.20
2011,04,22,15,26,11.20
2011,04,22,15,27,11.20
2011,04,22,15,28,11.20
2011,04,22,15,29,11.20
2011,04,22,15,30,11.20
2011,04,22,15,31,11.20
2011,04,22,15,32,11.20
2011,04,22,15,33,11.30
2011,04,22,15,34,11.30
2011,04,22,15,35,11.30
2011,04,22,15,36,11.30
2011,04,22,15,37,11.40
2011,04,22,15,38,11.40
2011,04,22,15,39,11.30
2011,04,22,15,40,11.30
2011,04,22,15,41,11.30
2011,04,22,15,42,11.30
2011,04,22,15,43,11.20
2011,04,22,15,44,11.20
2011,04,22,15,45,11.20
2011,04,22,15,46,11.20
2011,04,22,15,47,11.20
2011,04,22,15,48,11.20
2011,04,22,15,49,11.20
2011,04,22,15,50,11.20
2011,04,22,15,51,11.20
2011,04,22,15,52,11.20
2011,04,22,15,53,11.10
2011,04,22,15,54,11.10
2011,04,22,15,55,11.10
2011,04,22,15,56,11.10
2011,04,22,15,57,11.10
2011,04,22,15,58,11.10
2011,04,22,15,59,11.10
2011,04,22,16,00,11.10
2011,04,22,16,01,11.10
2011,04,22,16,02,11.10
2011,04,22,16,03,11.10
2011,04,22,16,04,11.10
2011,04,22,16,05,11.10
2011,04,22,16,06,11.10
2011,04,22,16,07,11.10
2011,04,22,16,08,11.10
2011,04,22,16,09,11.00
2011,04,22,16,10,11.00
2011,04,22,16,11,11.00
2011,04,22,16,12,11.10
2011,04,22,16,13,11.10
2011,04,22,16,14,11.10
2011,04,22,16,15,11.10
2011,04,22,16,16,11.10
2011,04,22,16,17,11.10
2011,04,22,16,18,11.10
2011,04,22,16,19,11.10
2011,04,22,16,20,11.20
2011,04,22,16,21,11.20
2011,04,22,16,22,11.20
2011,04,22,16,23,11.10
2011,04,22,16,24,11.10
2011,04,22,16,25,11.10
2011,04,22,16,26,11.10
2011,04,22,16,27,11.10
2011,04,22,16,28,11.10
2011,04,22,16,29,11.10
2011,04,22,16,30,11.20
2011,04,22,16,31,11.20
2011,04,22,16,32,11.20
2011,04,22,16,33,11.20
2011,04,22,16,34,11.20
2011,04,22,16,35,11.20
2011,04,22,16,36,11.20
2011,04,22,16,37,11.20
2011,04,22,16,38,11.30
2011,04,22,16,39,11.30
2011,04,22,16,40,11.30
2011,04,22,16,41,11.30
2011,04,22,16,42,11.30
2011,04,22,16,43,11.30
2011,04,22,16,44,11.40
2011,04,22,16,45,11.40
2011,04,22,16,46,11.40
2011,04,22,16,47,11.40
2011,04,22,16,48,11.50
2011,04,22,16,49,11.50
2011,04,22,16,50,11.50
2011,04,22,16,51,11.50
2011,04,22,16,52,11.50
2011,04,22,16,53,11.50
2011,04,22,16,54,11.50
2011,04,22,16,55,11.50
2011,04,22,16,56,11.50
2011,04,22,16,57,11.50
2011,04,22,16,58,11.40
2011,04,22,16,59,11.40
2011,04,22,17,00,11.40
2011,04,22,17,01,11.40
2011,04,22,17,02,11.40
2011,04,22,17,03,11.40
2011,04,22,17,04,11.40
2011,04,22,17,05,11.40
2011,04,22,17,06,11.40
2011,04,22,17,07,11.40
2011,04,22,17,08,11.40
2011,04,22,17,09,11.40
2011,04,22,17,10,11.50
2011,04,22,17,11,11.50
2011,04,22,17,12,11.50
2011,04,22,17,13,11.50
2011,04,22,17,14,11.50
2011,04,22,17,15,11.50
2011,04,22,17,16,11.50
2011,04,22,17,17,11.50
2011,04,22,17,18,11.60
2011,04,22,17,19,11.60
2011,04,22,17,20,11.60
2011,04,22,17,21,11.60
2011,04,22,17,22,11.60
2011,04,22,17,23,11.60
2011,04,22,17,24,11.60
2011,04,22,17,25,11.70
2011,04,22,17,26,11.70
2011,04,22,17,27,11.70
2011,04,22,17,28,11.70
2011,04,22,17,29,11.60
2011,04,22,17,30,11.60
2011,04,22,17,31,11.60
2011,04,22,17,32,11.60
2011,04,22,17,33,11.50
2011,04,22,17,34,11.40
2011,04,22,17,35,11.40
2011,04,22,17,36,11.40
2011,04,22,17,37,11.30
2011,04,22,17,38,11.30
2011,04,22,17,39,11.30
2011,04,22,17,40,11.30
2011,04,22,17,41,11.30
2011,04,22,17,42,11.30
2011,04,22,17,43,11.40
2011,04,22,17,44,11.40
2011,04,22,17,45,11.40
2011,04,22,17,46,11.40
2011,04,22,17,47,11.40
2011,04,22,17,48,11.40
2011,04,22,17,49,11.40
2011,04,22,17,50,11.50
2011,04,22,17,51,11.40
2011,04,22,17,52,11.40
2011,04,22,17,53,11.40